Regional Weather Roundup
Issued by NWS State College, PA

Home | Current Version | Previous Version | Graphics & Text | Print | Product List | Glossary Off
Versions: 1 2 3 4 5 6 7 8 9 10 11 12 13 14 15 16 17 18 19 20 21 22 23 24 25 26 27 28 29 30 31 32 33 34 35 36 37 38 39 40 41 42 43 44 45 46 47 48 49 50

000
ASUS41 KCTP 041903
RWRCTP

REGIONAL WEATHER ROUNDUP
NATIONAL WEATHER SERVICE STATE COLLEGE PA
300 PM EDT FRI SEP 04 2015

Note: "fair" indicates few or no clouds below 12,000 feet with no
significant weather and/or obstructions to visibility.

* = STATION THAT DOES NOT REPORT PRECIPITATION /E.G. RAIN...SNOW...ETC/
    THUNDER OR FOG.

PAZ002>004-007>009-013>016-020>023-029>032-042000-
WESTERN PENNSYLVANIA

CITY           SKY/WX    TMP DP  RH WIND       PRES   REMARKS
ERIE           FAIR      82  69  64 N6        30.07S
MEADVILLE      MOSUNNY   85  59  41 CALM      30.10R
FRANKLIN*      MOSUNNY   84  63  48 SE8       30.12S
NEW CASTLE     FAIR      85  67  54 CALM      30.09S
BEAVER COUNTY  MOSUNNY   82  64  54 W5        30.09S
BUTLER*        MOSUNNY   86  63  45 E3        30.09F
PITTSBURGH INT PTSUNNY   88  60  38 SW8       30.08S
PITTSBURGH     SUNNY     86  56  35 VRB3      30.07F
INDIANA*       PTSUNNY   86  66  51 CALM      30.11F
LATROBE        PTSUNNY   82  68  61 SE5       30.09F
WASHINGTON CO* MOSUNNY   88  59  37 SW6       30.09F
$$

PAZ004>006-010>012-017>019-024>028-033>037-041-042-045-046-049>053-042000-
CENTRAL PENNSYLVANIA

CITY           SKY/WX    TMP DP  RH WIND       PRES   REMARKS
BRADFORD       MOSUNNY   82  64  54 CALM      30.12F
DUBOIS         MOSUNNY   85  65  51 SW7       30.10F
CLEARFIELD     MOSUNNY   88  65  46 VRB5      30.09F
JOHNSTOWN      PTSUNNY   83  63  50 VRB5      30.12F THUNDER
ALTOONA        MOSUNNY   87  64  46 SE5       30.09F
STATE COLLEGE  MOSUNNY   84  68  58 VRB6      30.09F
WILLIAMSPORT   SUNNY     88  65  46 VRB6      30.04F
SELINSGROVE    SUNNY     89  66  46 CALM      30.04F
FT INDIANTOWN  SUNNY     89  66  46 E7        30.04F
CAPITAL CITY   SUNNY     89  66  46 SE5       30.03F
HARRISBURG     MOSUNNY   91  68  46 S5        30.02F HX  95
YORK           MOSUNNY   89  70  53 NE7       30.03F
$$

PAZ038>040-043-044-047-048-054-055-060>062-067>071-042000-
EASTERN PENNSYLVANIA

CITY           SKY/WX    TMP DP  RH WIND       PRES   REMARKS
SCRANTON       MOSUNNY   85  68  56 VRB5      30.09S
MOUNT POCONO   PTSUNNY   76  67  73 E12G18    30.16S
ALLENTOWN      PTSUNNY   88  69  53 E9        30.07S
QUAKERTOWN*    PTCLDY    84  70  61 E8        30.08S
READING        PTSUNNY   87  67  51 E6        30.03F
LANCASTER      MOSUNNY   89  66  46 SE9       30.04F
COATESVILLE    PTCLDY    86  66  51 E6        30.06F
POTTSTOWN      MOSUNNY   86  70  58 VRB6      30.07S
BLUE BELL      MOSUNNY   86  72  62 E13       30.06S
DOYLESTOWN     SUNNY     83  68  60 VRB3      30.07S
WILLOW GROVE   NOT AVBL
NORTH PHILA    MOSUNNY   87  66  49 E16G22    30.08S
PHILADELPHIA   MOSUNNY   90  69  50 E14       30.04R
$$


USA.gov is the U.S. government's official web portal to all federal, state and local government web resources and services.